Powrót do katalogu

STARLINK-30416

AktywnyŁącznośćVLEO
NORAD 57847·PAYLOAD·🇺🇸 United States

Wystrzelony Sep 12, 2023 z Vandenberg Space Force Base

Loading…

Następne Przeloty (najbliższe 24 godziny)

TLE

ŚwieżeSource: CelesTrak SupGP

Epoka: Sep 14, 2026, 21:43 UTC

1 57847C 23141H   26257.90534722 -.00028843  00000+0 -92757-3 0  2572
2 57847  53.1577 123.9280 0001427  80.7359 352.9597 15.31713938    14

Śledź STARLINK-30416 w czasie rzeczywistym z AllMySat

Download on the App Store